Flag for Australia Weather past 2 weeks in Perth, Western Australia, Australia

Now
79 °F

Sunny.


Feels Like: 79 °F
Forecast: 61 / 78 °F
Wind: 13 mph from East

Location: Belmont Perth Airport

Current Time: Apr 18, 2015 at 2:06:20 PM

Latest Report: Apr 18, 2015 at 1:30 PM


Visibility: 10 mi

Pressure: 30.18 "Hg

Humidity: 32%

Dew point: 46 °F

Location of PerthLocation

Historic Weather in Perth — Graph

°F

Perth temperature yesterday

Maximum temperature yesterday: 77 °F (at 2:00 PM)
Minimum temperature yesterday: 48 °F (at 12:00 AM)
Average temperature yesterday: 63 °F

Past Weeks' High & Low Weather Summary

 TemperatureHumidityPressure
High86 °F (Apr 3, 3:00 PM)100% (Apr 8, 9:00 PM)30.45 "Hg (Apr 8, 9:00 PM)
Low48 °F (Apr 17, 12:00 AM)25% (Apr 3, 2:00 PM)29.71 "Hg (Apr 10, 12:00 AM)
Average66 °F69%30.05 "Hg
* Reported Apr 3 12:00 Noon — Apr 18 12:30 PM, Perth, Weather by CustomWeather, © 2015

Note: Actual official high and low records may vary slightly from our data, if they occured in-between our weather recording intervals... More about our weather records

Advertising

Perth weather history for previous 24 hours

 ConditionsComfort  
Time TempWeatherWind HumidityBarometerVisibility
12:30 PM
Sat, Apr 18
77 °FSunny.14 mph34%30.21 "Hg10 mi
12:00 PM77 °FSunny.14 mph34%30.21 "Hg10 mi
11:00 AM73 °FSunny.16 mph41%30.21 "Hg10 mi
10:30 AM72 °FSunny.17 mph44%30.24 "Hg10 mi
10:00 AM70 °FSunny.18 mph50%30.24 "Hg10 mi
9:30 AM66 °FSunny.22 mph56%30.24 "Hg10 mi
9:00 AM64 °FSunny.21 mph56%30.24 "Hg10 mi
8:30 AM63 °FSunny.22 mph59%30.24 "Hg10 mi
8:00 AM61 °FSunny.22 mph63%30.21 "Hg10 mi
7:30 AM61 °FSunny.22 mph63%30.21 "Hg10 mi
7:00 AM59 °FSunny.24 mph72%30.18 "Hg10 mi
6:30 AM59 °FSunny.24 mph72%30.18 "Hg10 mi
6:00 AM59 °FSunny.17 mph68%30.18 "Hg10 mi
5:30 AM59 °FClear.3 mph68%30.18 "Hg10 mi
5:00 AM57 °FClear.8 mph72%30.18 "Hg10 mi
4:30 AM55 °FClear.3 mph77%30.18 "Hg10 mi
4:00 AM50 °FClear.No wind94%30.18 "Hg10 mi
3:30 AM50 °FClear.5 mph94%30.18 "Hg10 mi
3:00 AM50 °FClear.3 mph94%30.18 "Hg10 mi
2:30 AM48 °FClear.5 mph94%30.18 "Hg10 mi
2:00 AM48 °FClear.9 mph94%30.18 "Hg10 mi
1:30 AM50 °FClear.6 mph88%30.18 "Hg10 mi
1:00 AM50 °FClear.2 mph94%30.18 "Hg10 mi
12:30 AM50 °FClear.2 mph94%30.18 "Hg10 mi
12:00 AM52 °FClear.6 mph88%30.18 "Hg10 mi
11:30 PM
Fri, Apr 17
54 °FClear.3 mph88%30.18 "Hg10 mi
11:00 PM55 °FClear.7 mph82%30.18 "Hg10 mi
10:30 PM55 °FClear.7 mph82%30.18 "Hg10 mi
10:00 PM59 °FClear.7 mph77%30.18 "Hg10 mi
9:30 PM61 °FClear.8 mph68%30.21 "Hg10 mi
9:00 PM63 °FClear.10 mph64%30.21 "Hg10 mi
8:30 PM63 °FClear.14 mph64%30.21 "Hg10 mi
8:00 PM64 °FClear.14 mph60%30.18 "Hg10 mi
7:30 PM64 °FClear.13 mph60%30.18 "Hg10 mi
7:00 PM66 °FClear.12 mph52%30.18 "Hg10 mi
6:30 PM66 °FClear.10 mph60%30.15 "Hg10 mi
6:00 PM68 °FClear.13 mph53%30.15 "Hg10 mi
5:30 PM68 °FClear.12 mph49%30.15 "Hg10 mi
5:00 PM70 °FClear.15 mph46%30.15 "Hg10 mi
4:30 PM72 °FSunny.15 mph47%30.15 "Hg10 mi
4:00 PM72 °FSunny.14 mph47%30.15 "Hg10 mi
3:30 PM72 °FSunny.16 mph50%30.15 "Hg10 mi
3:00 PM73 °FSunny.13 mph47%30.15 "Hg10 mi
2:30 PM75 °FSunny.15 mph41%30.15 "Hg10 mi
2:00 PM77 °FSunny.10 mph36%30.15 "Hg10 mi
Weather by CustomWeather, © 2015

See weather overviewHow to use our weather pages